TimeCDT,TemperatureF,Dew PointF,Humidity,Sea Level PressureIn,VisibilityMPH,Wind Direction,Wind SpeedMPH,Gust SpeedMPH,PrecipitationIn,Events,Conditions,WindDirDegrees,DateUTC
12:53 AM,64.0,55.9,75,30.09,8.0,SSE,6.9,-,N/A,,Partly Cloudy,150,2013-05-27 05:53:00
1:53 AM,63.0,55.9,78,30.07,8.0,SSE,4.6,-,N/A,,Partly Cloudy,150,2013-05-27 06:53:00
2:53 AM,61.0,55.0,81,30.06,8.0,ESE,4.6,-,N/A,,Clear,110,2013-05-27 07:53:00
3:53 AM,62.1,55.9,80,30.06,8.0,East,6.9,-,N/A,,Scattered Clouds,100,2013-05-27 08:53:00
4:53 AM,61.0,55.0,81,30.06,8.0,ESE,5.8,-,N/A,,Partly Cloudy,120,2013-05-27 09:53:00
5:53 AM,59.0,54.0,83,30.06,7.0,ESE,4.6,-,N/A,,Partly Cloudy,110,2013-05-27 10:53:00
6:53 AM,63.0,57.0,81,30.05,7.0,ESE,6.9,-,N/A,,Partly Cloudy,120,2013-05-27 11:53:00
7:53 AM,69.1,57.9,68,30.02,8.0,South,12.7,-,N/A,,Clear,170,2013-05-27 12:53:00
8:53 AM,73.0,59.0,61,30.02,7.0,South,15.0,-,N/A,,Clear,190,2013-05-27 13:53:00
9:53 AM,79.0,61.0,54,30.02,7.0,SSW,16.1,-,N/A,,Clear,200,2013-05-27 14:53:00
10:53 AM,81.0,63.0,54,30.01,7.0,SW,17.3,23.0,N/A,,Clear,220,2013-05-27 15:53:00
11:53 AM,84.0,63.0,49,29.99,7.0,SSW,18.4,31.1,N/A,,Clear,210,2013-05-27 16:53:00
12:53 PM,84.0,64.0,51,29.97,7.0,SSW,15.0,28.8,N/A,,Partly Cloudy,200,2013-05-27 17:53:00
1:53 PM,84.9,63.0,48,29.98,7.0,SW,23.0,-,N/A,,Mostly Cloudy,220,2013-05-27 18:53:00
2:53 PM,86.0,61.0,43,29.95,7.0,SSW,23.0,31.1,N/A,,Scattered Clouds,200,2013-05-27 19:53:00
3:53 PM,84.0,60.1,44,29.93,8.0,SSW,18.4,-,N/A,,Mostly Cloudy,210,2013-05-27 20:53:00
4:53 PM,84.0,60.1,44,29.92,7.0,SSW,21.9,26.5,N/A,,Overcast,200,2013-05-27 21:53:00
5:53 PM,82.9,61.0,47,29.91,7.0,South,15.0,-,N/A,,Mostly Cloudy,190,2013-05-27 22:53:00
6:53 PM,79.0,63.0,58,29.91,7.0,SSW,15.0,-,0.00,Rain,Light Rain,200,2013-05-27 23:53:00
7:04 PM,80.6,62.6,54,29.96,7.0,WNW,21.9,33.4,0.00,Thunderstorm,Overcast,290,2013-05-28 00:04:00
7:10 PM,71.6,62.6,73,29.96,1.5,WNW,27.6,39.1,0.11,Rain-Thunderstorm,Light Thunderstorms and Rain,300,2013-05-28 00:10:00
7:15 PM,68.0,64.4,88,29.96,0.5,WNW,19.6,33.4,0.28,Fog-Rain-Thunderstorm,Heavy Thunderstorms and Rain,300,2013-05-28 00:15:00
7:26 PM,68.0,64.4,88,29.95,2.0,NW,9.2,-,0.38,Rain-Thunderstorm,Light Thunderstorms and Rain,310,2013-05-28 00:26:00
7:34 PM,68.0,64.4,88,29.96,8.0,WNW,4.6,-,0.39,Rain-Thunderstorm,Light Thunderstorms and Rain,300,2013-05-28 00:34:00
7:53 PM,66.9,64.0,90,29.94,6.0,SSE,6.9,-,0.41,Rain-Thunderstorm,Light Rain,160,2013-05-28 00:53:00
8:07 PM,66.2,64.4,94,29.94,6.0,SSE,10.4,-,0.02,Rain,Light Rain,160,2013-05-28 01:07:00
8:53 PM,66.9,64.0,90,29.88,10.0,East,8.1,18.4,0.04,,Mostly Cloudy,80,2013-05-28 01:53:00
9:01 PM,66.2,64.4,94,29.90,10.0,Variable,5.8,-,N/A,,Mostly Cloudy,0,2013-05-28 02:01:00
9:13 PM,68.0,62.6,83,29.91,10.0,Variable,4.6,-,N/A,,Scattered Clouds,0,2013-05-28 02:13:00
9:53 PM,68.0,64.0,87,29.93,10.0,SW,5.8,-,N/A,,Clear,220,2013-05-28 02:53:00
10:53 PM,66.0,63.0,90,29.94,10.0,South,5.8,-,N/A,,Clear,180,2013-05-28 03:53:00
11:53 PM,66.0,63.0,90,29.94,10.0,South,5.8,-,N/A,,Clear,170,2013-05-28 04:53:00